Regional Weather Roundup
Issued by NWS Northern Indiana

Home | Current Version | Previous Version | Graphics & Text | Print | Product List | Glossary On
Versions: 1 2 3 4 5 6 7 8 9 10 11 12 13 14 15 16 17 18 19 20 21 22 23 24 25 26 27 28 29 30 31 32 33 34 35 36 37 38 39 40 41 42 43 44 45 46 47 48 49 50
091
ASUS43 KIWX 301800
RWRIWX

KIWX WEATHER ROUNDUP
NATIONAL WEATHER SERVICE NORTHERN INDIANA
200 PM EDT THU MAR 30 2017

NOTE: "FAIR" INDICATES FEW OR NO CLOUDS BELOW 12,000 FEET WITH NO
SIGNIFICANT WEATHER AND/OR OBSTRUCTIONS TO VISIBILITY.

* THESE STATIONS ARE NOT UNDER NWS QUALITY CONTROL. THEY ALSO MAY NOT
  REPORT WEATHER SUCH AS PRECIPITATION OR FOG.

INZ001>027-301900-
NORTHERN INDIANA

CITY           SKY/WX    TMP DP  RH WIND       PRES   REMARKS
GARY*          LGT RAIN  46  43  87 E14G25    29.64F
KNOX*          CLOUDY    45  32  61 E16       29.67F
SOUTH BEND     CLOUDY    44  50 100 E16G24    29.71F
6HR MIN TEMP:  39; 6HR MAX TEMP:  44; 6HR PCP:  0.28;

GOSHEN         CLOUDY    45  39  79 E13       29.71F
6HR MIN TEMP:  41; 6HR MAX TEMP:  45; 6HR PCP:  0.17;

MONTICELLO*    CLOUDY    50  46  88 E12G17    29.64F
6HR MIN TEMP:  42; 6HR MAX TEMP:  50; 6HR PCP:  0.41;

ANGOLA*        CLOUDY    41  34  75 E18       29.76F
FORT WAYNE     TSTM      45  41  86 E17       29.75S VSB 1
6HR MIN TEMP:  42; 6HR MAX TEMP:  48; 6HR PCP:  0.30;

PERU/GRISSOM   LGT RAIN  48  48 100 E16       29.67F

$$
INZ028>050-301900-
CENTRAL INDIANA

CITY           SKY/WX    TMP DP  RH WIND       PRES   REMARKS
LAFAYETTE      CLOUDY    57  53  86 E16       29.62F
6HR MIN TEMP:  44; 6HR MAX TEMP:  57; 6HR PCP:  0.20;

KOKOMO*        RAIN      49  46  90 E18       29.67F
6HR MIN TEMP:  43; 6HR MAX TEMP:  50; 6HR PCP:  0.14;

MUNCIE*        CLOUDY    57  49  74 E12       29.69F
6HR MIN TEMP:  48; 6HR MAX TEMP:  57; 6HR PCP:  0.08;

INDIANAPOLIS   MOSUNNY   67  58  72 E12       29.62F
6HR MIN TEMP:  53; 6HR MAX TEMP:  67; 6HR PCP: TRACE;


$$
MIZ043>046-050>051-056>058-064>065-071>073-077>080-301900-
SOUTHWEST LOWER MICHIGAN

CITY           SKY/WX    TMP DP  RH WIND       PRES   REMARKS
BATTLE CREEK   LGT RAIN  41  39  93 E10G23    29.80F
6HR MIN TEMP:  39; 6HR MAX TEMP:  41; 6HR PCP:  0.46;

BENTON HARBOR    N/A    N/A N/A N/A MISG        N/A
COLDWATER*     CLOUDY    43  40  91 E16G25    29.76F
6HR MIN TEMP:  39; 6HR MAX TEMP:  43;

HILLSDALE*     CLOUDY    41  37  87 E23G31    29.77F
HOLLAND        CLOUDY    42  38  85 E16G26    29.79F
6HR MIN TEMP:  38; 6HR MAX TEMP:  42; 6HR PCP:  0.21;

GRAND RAPIDS   CLOUDY    39  39 100 E21G29    29.83F
6HR MIN TEMP:  36; 6HR MAX TEMP:  39; 6HR PCP:  0.16;

KALAMAZOO      LGT RAIN  42  38  85 E8G20     29.78F
6HR MIN TEMP:  40; 6HR MAX TEMP:  42; 6HR PCP:  0.48;

STURGIS*       LGT RAIN  42  40  92 E15       29.75S
6HR MIN TEMP:  38; 6HR MAX TEMP:  42; 6HR PCP:  0.19;

THREE RIVERS*  CLOUDY    43  40  89 E12       29.76S

$$
OHZ001>008-015>018-024>025-301900-
NORTHWEST OHIO

CITY           SKY/WX    TMP DP  RH WIND       PRES   REMARKS
DEFIANCE       LGT RAIN  43  39  86 E17G25    29.77F
6HR MIN TEMP:  39; 6HR MAX TEMP:  43; 6HR PCP:  0.06;

FINDLAY        CLOUDY    48  41  76 E17       29.77F
6HR MIN TEMP:  43; 6HR MAX TEMP:  49; 6HR PCP:  0.40;

TOLEDO EXPRESS CLOUDY    41  39  93 E18G26    29.81F
6HR MIN TEMP:  38; 6HR MAX TEMP:  41; 6HR PCP:  0.24;

TOLEDO METCALF CLOUDY    42  39  89 E17G25    29.86S
6HR MIN TEMP:  39; 6HR MAX TEMP:  42; 6HR PCP:  0.23;

LIMA           CLOUDY    52  47  83 E15       29.74F
6HR MIN TEMP:  44; 6HR MAX TEMP:  52; 6HR PCP:  0.14;


$$
AND FOR LAKE MICHIGAN COASTAL AND OPEN LAKE BUOY OBSERVATIONS

STATION/POSITION TEMP    WIND        PRES    VSBY  WAVE
                 AIR SEA DIR/SP/G                  HT/PER
                 (F)     (DEG/KT/KT) (MB)    (MI)  (FT/S)
CALUMET HARBOR    41      60/ 11/ 15 1003.6F
MICHIGAN CITY     44     100/ 15/ 20   N/A
BURNS HARBOR      45     110/ 19/ 25 1003.4F

$$
&&




USA.gov is the U.S. government's official web portal to all federal, state and local government web resources and services.